Wooster, OH

3:40 PM EST on February 20, 2017 (GMT -0500)
Wayne County

Weather History for KBJJ - May, 2014

Change the Weather History Date:

Wednesday, May 7, 2014

  Actual Average Record
Temperature  
Mean Temperature 60 °F -  
Max Temperature 75 °F 66 °F 86 °F (2015)
Min Temperature 46 °F 44 °F 30 °F (2006)
Degree Days  
Heating Degree Days 4    
Growing Degree Days 10 (Base 50)    
Moisture  
Dew Point 49 °F    
Average Humidity 68    
Maximum Humidity 86    
Minimum Humidity 50    
Precipitation  
Precipitation 0.28 in - - ()
Sea Level Pressure  
Sea Level Pressure 30.02 in    
Wind  
Wind Speed 8 mph (ESE)    
Max Wind Speed 14 mph    
Max Gust Speed -    
Visibility 10 miles    
Events Rain    
Averages and records for this station are not official NWS values.
T = Trace of Precipitation, MM = Missing Value Source: NWS Daily Summary

Daily Weather History Graph

Daily Weather History Graph

Search for Another Location

Airport or City:

Trip Planner

Search our weather history database for the weather conditions in past years. The results will help you decide how hot, cold, wet, or windy it might be!

Date:

Astronomy

May. 07, 2014 Rise Set
Actual Time 6:18 AM EDT 8:30 PM EDT
Civil Twilight 5:48 AM EDT 9:00 PM EDT
Nautical Twilight 5:10 AM EDT 9:38 PM EDT
Astronomical Twilight 4:30 AM EDT 10:19 PM EDT
Moon 1:31 PM EDT (5/7) 2:19 AM EDT (5/7)
Length of Visible Light 15h 12m
Length of Day
14h 11m
First Quarter, 55% of the Moon is Illuminated
May 7
First Quarter
May 14
Full
May 21
Last Quarter
May 28
New
Jun 5
First Quarter

Hourly Weather History & Observations

Time (EDT) Temp. Windchill Dew Point Humidity Pressure Visibility Wind Dir Wind Speed Gust Speed Precip Events Conditions
12:56 AM 48.0 °F - 36.0 °F 63% 30.05 in 10.0 mi East 6.9 mph - N/A   Clear
2:56 AM 46.9 °F - 35.1 °F 63% 30.04 in 10.0 mi East 4.6 mph - N/A   Mostly Cloudy
3:56 AM 50.0 °F - 35.1 °F 57% 30.02 in 10.0 mi ESE 8.1 mph - N/A   Overcast
4:56 AM 50.0 °F - 36.0 °F 59% 30.00 in 10.0 mi ESE 8.1 mph - N/A   Mostly Cloudy
5:56 AM 46.0 °F 43.1 °F 41.0 °F 83% 30.06 in 6.0 mi SSE 5.8 mph - 0.22 in Rain Rain
6:56 AM 46.9 °F - 43.0 °F 86% 30.06 in 10.0 mi East 10.4 mph - 0.04 in Rain Light Rain
7:56 AM 48.0 °F - 43.0 °F 83% 30.08 in 8.0 mi ENE 6.9 mph - 0.02 in Rain Light Rain
8:56 AM 50.0 °F - 45.0 °F 83% 30.06 in 10.0 mi ESE 9.2 mph - 0.00 in   Overcast
9:56 AM 52.0 °F - 46.9 °F 83% 30.07 in 8.0 mi SE 8.1 mph - N/A   Scattered Clouds
10:56 AM 57.0 °F - 48.9 °F 74% 30.08 in 10.0 mi SE 10.4 mph - N/A   Clear
11:56 AM 59.0 °F - 50.0 °F 72% 30.07 in 10.0 mi ESE 6.9 mph - N/A   Clear
12:56 PM 64.9 °F - 53.1 °F 65% 30.04 in 10.0 mi ESE 12.7 mph - N/A   Clear
1:56 PM 68.0 °F - 54.0 °F 61% 30.03 in 10.0 mi SSE 11.5 mph - N/A   Clear
2:56 PM 71.1 °F - 55.0 °F 57% 30.00 in 10.0 mi SSE 13.8 mph - N/A   Clear
3:56 PM 73.9 °F - 55.9 °F 53% 29.99 in 10.0 mi SSE 8.1 mph - N/A   Clear
4:56 PM 75.0 °F - 55.0 °F 50% 29.97 in 10.0 mi SE 5.8 mph - N/A   Clear
5:56 PM 75.0 °F - 57.0 °F 53% 29.97 in 10.0 mi East 8.1 mph - N/A   Clear
6:56 PM 69.1 °F - 55.9 °F 63% 29.98 in 10.0 mi East 9.2 mph - N/A   Clear
7:56 PM 66.0 °F - 55.9 °F 70% 29.98 in 10.0 mi East 9.2 mph - N/A   Clear
8:56 PM 64.9 °F - 54.0 °F 68% 29.99 in 10.0 mi East 9.2 mph - N/A   Clear
9:56 PM 64.0 °F - 55.0 °F 73% 30.00 in 10.0 mi East 10.4 mph - N/A   Clear
10:56 PM 62.1 °F - 54.0 °F 75% 30.00 in 10.0 mi East 5.8 mph - N/A   Clear
11:56 PM 60.1 °F - 53.1 °F 78% 30.00 in 10.0 mi ESE 4.6 mph - N/A   Clear